Uitrukken 2013

Nr. Tijdstip Melding Voertuig(en)
185 30-12-2013 17:22 PRIO 1 OMS Maranatha / Ingang K2 : KEIZERSDIJK 7462JB : RIJSSEN 5131
184 30-12-2013 08:54 PRIO 1 OMS Maranatha / Ingang K2 : KEIZERSDIJK 7462JB : RIJSSEN 5131
183 28-12-2013 14:39
28-12-2013 14:37
PRIO 1 Woningbrand : HOGEPAD 7462WK : RIJSSEN
PRIO 1 Brandgerucht : HOGEPAD 7462WK : RIJSSEN
5131 5141
182 27-12-2013 11:36 PRIO 1 OMS Parkstede 3+5 hoog flat Potteb : POTTEBAKKERSERF : RIJSSEN 5131
181 26-12-2013 12:13 PRIO 1 OGS Klein (Gaslucht) : HAGSLAGEN 7462KE : RIJSSEN 5131 5171
180 25-12-2013 14:32 PRIO 1 OMS Eltheto (nieuw) : KAREL DOORMANSTRAAT 7461ER : RIJSSEN 5131
179 24-12-2013 16:29 PRIO 1 OMS Winkelcentrum (autom. alarm) : HOGEPAD 7462TA : RIJSSEN 5131
178 22-12-2013 17:22 PRIO 1 Gebouwbrand (schoorsteen) : NIJVERDALSEWEG 7461AH : RIJSSEN 5131
177 18-12-2013 18:27 PRIO 1 OGS Klein (Gaslucht) : HAARSTRAAT 7462AW : RIJSSEN 4031 5171
176 18-12-2013 14:39 PRIO 1 OGS Klein (Soort: Vreemde lucht) Vif Jeans and Specials : HAARSTRAAT 7462AP : RIJSSEN 4031 5171
175 16-12-2013 12:02 PRIO 1 OMS Winkelcentrum (autom. alarm) : HOGEPAD 7462TA : RIJSSEN 5141
174 15-12-2013 13:12 PRIO 1 OMS Maranatha / Ingang K2 : KEIZERSDIJK 7462JB : RIJSSEN 5131
173 14-12-2013 21:56 PRIO 1 Brand Wegvervoer (Soort: personenauto) Aware House : WIJNAND ZEEUWSTRAAT 7462DC : RIJSSEN 5131
172 12-12-2013 05:03 PRIO 1 Bijstand (schuur) (Grote brand) (Bijstand: WTS 10 : HOESELDERDIJK a 7627PW : BORNERBROEK 5131 5061
171 05-12-2013 12:08 PRIO 2 Stormschade : GRAAF OTTOSTRAAT 7461CX : RIJSSEN 5131
170 04-12-2013 00:20 PRIO 1 Gebouwbrand (schoorsteen) : MARKELOSEWEG 7461PB : RIJSSEN 5131
169 03-12-2013 17:25 PRIO 1 OMS Hotel de Beijaardier : SCHILD 7461DD : RIJSSEN 5131
168 27-11-2013 12:06 PRIO 1 OMS Wellehof lokatie Kattenhaarswe : KATTENHAARSWEG 7462ER : RIJSSEN 5141
167 27-11-2013 12:01 PRIO 1 OMS Veste de : IZAAK HEIJMANSTRAAT 7461MA : RIJSSEN 5131
166 26-11-2013 12:08 PRIO 2 Dienstverlening (Inzet brw: Reinigen wegdek) : SCHOOLSTRAAT : RIJSSEN 5141
165 21-11-2013 18:40 PRIO 1 Brand Wegvervoer (Soort: personenauto) : BURGEMEESTER KNOTTENBELTL : RIJSSEN 5131
164 19-11-2013 16:56 PRIO 1 OMS Hofman Animal Care : RIJSSENSESTRAAT – N350 160 7462NN : WIERDEN 5131
163 16-11-2013 13:31 PRIO 1 Woningbrand : GROTESTRAAT 7461KG : RIJSSEN 5131 5141
162 16-11-2013 13:03 PRIO 1 OMS Schutse de : WIERDENSESTRAAT 7461BC : RIJSSEN 5131
161 14-09-2013 10:16 PRIO 1 OMS Parkgebouw Multifunctioneel Ce : OOSTERHOFWEG 7461BT : RIJSSEN 5131
160 11-09-2013 19:09 PRIO 1 OMS Stempher verpakkingsindustrie : MORSWEG 7461AG : RIJSSEN 5131
159 09-11-2013 21:54 PRIO 1 PAC Melding : PLEIN 1940-1945 7461MC : RIJSSEN 5131
158 09-11-2013 19:59 PRIO 1 GAS OMS Plukon Goor B.V. : BREUKERSWEG 7471ST : GOOR 5171
157 03-11-2013 16:26 PRIO 2 Wateroverlast Otje van Potje : HAARSTRAAT 7462AV : RIJSSEN 5131
156 01-11-2013 16:22 PRIO 1 OMS Heutink Primair Onderwijs : NIJVERHEIDSSTRAAT 7461AD : RIJSSEN 5131
155 30-10-2013 17:47 PRIO 1 OMS Handmelder Maranatha / Ingang R1 : ROELF BOSMASTRAAT 7462MM : RIJSSEN 5131
154 28-10-2013 12:12 PRIO 1 Stormschade : VAN DEN BROEKESTRAAT 7462VR : RIJSSEN 5141
153 28-10-2013 12:08 PRIO 3 Stormschade Hospice De Reggestroom : GROENEWEG 7461RA : RIJSSEN 5131
152 28-10-2013 11:10 PRIO 2 Stormschade IRENELAAN : VENNEKESGAARDEN : RIJSSEN 5131
151 23-10-2013 11:49 PRIO 1 OGS Klein (Mogelijk Gev Stoffen) : TABAKSGAARDEN : RIJSSEN 5131 5171
150 23-10-2013 01:12 PRIO 2 Hulpverlening* : NIJVERHEIDSSTRAAT 7461AE : RIJSSEN 5131
149 19-10-2013 03:40 PRIO 1 OMS Winkelcentrum (autom. alarm) : HOGEPAD 7462TA : RIJSSEN 5141
148 17-10-2013 05:38 PRIO 1 OMS Winkelcentrum (autom. alarm) : HOGEPAD 7462TA : RIJSSEN 5141
147 16-10-2013 18:31 PRIO 2 Hulpverlening * Maranatha / Ingang D2 : DIEKJANSWEG 7462JD : RIJSSEN 5141
146 15-10-2013 17:01 PRIO 1 Brand Wegvervoer (Soort: personenauto) : RIJSSENSESTRAAT – N350 : WIERDEN 5141
145 15-10-2013 10:29 PRIO 1 Gebouwbrand (schuur) : DANNENBERG 7461TH : RIJSSEN 5141
144 12-10-2013 00:58 PRIO 1 OMS Kulturhus Notter Zuna : VAN KREGTENWEG 7467PL : NOTTER 5131
143 11-10-2013 15:45 PRIO 1 OMS Gamma Bouwmarkt Rijssen : ENTERSTRAAT 7461PE : RIJSSEN 5131
142 08-10-2013 20:34 PRIO 1 OGS Klein (Gaslucht) : LAARSTRAAT 7471DC : GOOR 5171
141 02-10-2013 16:21 PRIO 1 assistentie meetploegen : OOTMARSUMSESTRAAT 7603NL : ALMELO 5101
140 28-09-2013 23:35 PRIO 2 Liftopsluiting : ESSTRAAT 7462EH : RIJSSEN 5131
139 26-09-2013 08:23 PRIO 1 Aanrijding Letsel : A1 L 132 : ENTER 5171
138 26-09-2013 01:16 PRIO 1 Aanrijding Letsel : A1 R 135 : ENTER 5171
137 23-09-2013 08:49 PRIO 1 OMS Maranatha / Ingang K1 : KEIZERSDIJK 7462JB : RIJSSEN 5131
136 17-09-2013 20:19 PRIO 1 OMS Maranatha / Ingang K2 : KEIZERSDIJK 7462JB : RIJSSEN 5131
135 17-06-2013 16:50 PRIO 2 Liftopsluiting RABO Rijssen-Enter : BOOMKAMP 7461AW : RIJSSEN 5131
134 16-06-2013 21:15 PRIO 1 Aanrijding Letsel : A1 L 126 : RIJSSEN 5171
133 15-09-2013 14:32 PRIO 2 Stormschade : ALBERTSDIJK : RIJSSEN 5131
132 12-09-2013 05:47 PRIO 2 Brandgerucht Eltheto : KAREL DOORMANSTRAAT 7461ER : RIJSSEN 5131
131 08-09-2013 11:07 PRIO 1 OMS Wellehof lokatie Kattenhaarswe : KATTENHAARSWEG 7462ER : RIJSSEN 5131
130 01-09-2013 08:48 PRIO 1 OMS JP van den Bent : DE GIEZEN 7461BB : RIJSSEN 5131
129 29-08-2013 06:03 PRIO 1 OMS Wellehof de Woonzorgcentrum : WELLEWEG 7462GE : RIJSSEN 5131
128 28-08-2013 17:12 PRIO 2 Stormschade : KASTEELLAAN : RIJSSEN 5131
127 27-08-2013 16:08 PRIO 2 Dienstverlening (Inzet brw: Reinigen wegdek) : REGGESINGEL : RIJSSEN 5141
126 27-08-2013 12:08 PRIO 1 Aanrijding Letsel : RIETWEG/Borkeld : RIJSSEN 5131 5171
125 24-08-2013 05:22 PRIO 1 Brandgerucht : WATERMOLEN 7461AZ : RIJSSEN 5131
124 14-08-2013 13:50 PRIO 1 OMS Hofman Animal Care : RIJSSENSESTRAAT – N350 160 7462NN : WIERDEN 5131
123 12-08-2013 10:36 PRIO 2 Liftopsluiting : JACOB VAN HOUTESTRAAT 7442NE : NIJVERDAL 5131
122 10-08-2013 16:19 PRIO 1 OGS Klein (Gaslucht) : KRUISSTEENWEG 7642VS : WIERDEN 5141
121 10-08-2013 16:15 PRIO 1 Aanrijding Letsel : RONDWEG – N346 33 : GOOR 5171
120 09-08-2013 18:32 PRIO 1 Brand Wegvervoer (Soort: vrachtwagen) Broeze Staalbouw : INDUSTRIEWEG 7442CV : NIJVERDAL 5141
119 06-08-2013 13:00 PRIO 1 Gebouwbrand (schuur) : ENTERSTRAAT 7461PE : RIJSSEN 5131
118 05-08-2013 11:49 PRIO 1 Bijstand (Bijstand: WTS 1000) KANAAL N.Z. : LOOWEG : ALBERGEN 5141
117 04-08-2013 11:37 PRIO 2 Nacontrole : OUDE VEEMARKT : RIJSSEN 5141
116 03-08-2013 00:13 PRIO 2 Hulpverlening Materiaaldienst : SMALENDIJK 7466PM : ZUNA 5141
115 02-08-2013 20:21 RIO 1 OMS Heutink Primair Onderwijs : NOORDERMORSSINGEL 7461JN : RIJSSEN 5141
114 02-08-2013 18:12 PRIO 1 PAC Melding Newland Food : NOORDERMORSSINGEL 7461JN : RIJSSEN 5141
113 02-08-2013 10:14 PRIO 1 Gebouwbrand (schuur) : GRAAF WILLEM LODEWIJKSTRA 20 7462EX : RIJSSEN 5141
112 29-07-2013 12:32 PRIO 1 Aanrijding Letsel : A1 R 135 : ENTER 5171
111 28-07-2013 04:19 PRIO 2 Stormschade : GESKESDIJK 7462PH : RIJSSEN 5141
110 28-07-2013 02:40 PRIO 2 Stormschade : MOLENDIJK ZUID 39 7461JD : RIJSSEN 5141
109 28-07-2013 02:25 PRIO 2 Stormschade BEUKENLAAN : GROTE MAATWEG : WIERDEN 5141
108 26-07-2013 14:12 PRIO 2 Boom over de weg LICHTENBERGERDIJK : LICHTENBERGERWEG : HOLTEN 5141
107 22-07-2013 12:14 PRIO 1 OGS Klein (Vloeistoflekkage) : RIJSSENSESTRAAT – N350 12 : WIERDEN 5141 5171
106 19-07-2013 20:05 PRIO 1 OMS Handmelder Maranatha / Ingang K1 : KEIZERSDIJK 7462JB : RIJSSEN 5141
105 19-07-2013 17:00 PRIO 1 Aanrijding Letsel : A1 R 130 : RIJSSEN 5171
104 16-07-2013 17:55 PRIO 1 OMS Maranatha / Ingang R1 : ROELF BOSMASTRAAT 7462MM : RIJSSEN 5131
103 15-07-2013 20:54 PRIO 1 OMS Handmelder Maranatha / Ingang K1 : KEIZERSDIJK 7462JB : RIJSSEN 5131
102 15-07-2013 11:01 PRIO 1 Aanrijding Letsel Noetselerberg camping De : HOLTERWEG 7441DK : NIJVERDAL 5171
101 13-07-2013 12:31 PRIO 1 OMS Parkstede Zorgwoningen Oosterh : OOSTERHOFWEG 7461BW : RIJSSEN 5131
100 09-07-2013 07:43  PRIO 1 Gebouwbrand (schuur) : PRINS BERNHARDSTRAAT 7462GT : RIJSSEN 5131 5141
99 08-07-2013 03:27 PRIO 1 Industriebrand Rheins het Cafe Restaurant : REINTSZIJWEG b 7468SL : ENTER 5131
98 07-07-2013 15:30 PRIO 1 PAC Melding Newland Food : NOORDERMORSSINGEL 7461JN : RIJSSEN 5131
97 07-07-2013 07:55 PRIO 1 Aanrijding Letsel : KAREL DOORMANSTRAAT : RIJSSEN 5141 5171
96 07-07-2013 07:46 PRIO 1 Bijstand (Bijstand: WTS 1000) : ELSGRAVENWEG : ENTER
PRIO 1 Industriebrand Wolters Kunststoffen : VONDERWEG 7468DC : ENTER
5131 5151 5061
95 03-07-2013 11:34 PRIO 1 Woningbrand : BOTERBLOEM 7463EH : RIJSSEN 5131
94 29-06-2013 22:46 PRIO 2 Nacontrole Eltheto : KAREL DOORMANSTRAAT 7461ER : RIJSSEN 5131
93 26-06-2013 12:05 PRIO 2 Brandgerucht : BOUWSTRAAT 7462AZ : RIJSSEN 5131
92 24-06-2013 17:23 PRIO 1 OMS Wellehof lokatie Kattenhaarswe : KATTENHAARSWEG 7462ER : RIJSSEN 5131
91 21-06-2013 13:25 PRIO 2 Dienstverlening (Inzet Brw: Afhijsen Patient RV) : GRAAF OTTOSTRAAT 7461CZ : RIJSSEN 5151
91 20-06-2013 22:43 PRIO 1 OMS Wellehof lokatie Kattenhaarswe : KATTENHAARSWEG 7462ER : RIJSSEN 5131
90 14-06-2013 13:31 PRIO 2 Gezondheid (Inzet Brw: Tilassistentie TS) : GROTESTRAAT a 7443BS : NIJVERDAL 5151
89 07-06-2013 19:24 PRIO 1 PAC Melding Newland Food : NOORDERMORSSINGEL 7461JN : RIJSSEN 5131
88 04-06-2013 13:36 PRIO 1 Bijstand (Bijstand: WTS 1000) : KLEIBULTWEG 7575BX : OLDENZAAL 5141 5181 5162 5101 5131
87 02-06-2013 11:47 PRIO 1 Aanrijding Letsel : N347 : ENTER
NB: Frontale aanrijding op N347 tussen A1 en Goor.
5171
86 01-06-2013 08:27 PRIO 1 Aanrijding Letsel : A1 R 133 : ENTER 5171
85 31-05-2013 16:54 PRIO 2 Dienstverlening (Inzet Brw: Afhijsen Patient RV) : WEVERSSTRAAT 7451BC : HOLTEN 5151
84 29-05-2013 21:26 PRIO 2 Dienstverlening (Inzet Brw: Reinigen wegdek) : LIJSTERBESLAAN : RIJSSEN 5141
83 28-05-2013 15:42 PRIO 1 Aanrijding Letsel : A1 R 136 : ENTER 5171
82 28-05-2013 13:56 PRIO 1 OMS Parkeergarage (autom. alarm) : HOGEPAD 7462TA : RIJSSEN 5131
81 26-05-2013 21:08 PRIO 1 Woningbrand (nog onbekend) Keuntje 't Grandcafe : DORPSSTRAAT 7451BR : HOLTEN
NB: Brand in prullenbak.
5131
80 26-05-2013 15:22 PRIO 2 Buitenbrand Berm/Ruigte : HELIUMSTRAAT : RIJSSEN
NB: Containerbrand achter bedrijfspand.
5131
79 24-05-2013 18:19 PRIO 1 Aanrijding Letsel MEENWEG : TWIKKELERWEG : MARKELO 5171
78 22-05-2013 13:54 PRIO 1 OMS Parkstede Zorgwoningen Oosterh : OOSTERHOFWEG 7461BW : RIJSSEN 5131
77 20-05-2013 14:41 PRIO 1 Aanrijding Letsel : A1 R 133 : ENTER 5171
76 20-05-2013 13:44 PRIO 1 Woningbrand : DE AKKERS 7468DE : ENTER 5131 5151
75 17-05-2013 09:21 PRIO 1 OMS Parkstede Zorgwoningen Oosterh : OOSTERHOFWEG 7461BW : RIJSSEN 5131
74 16-05-2013 00:55 PRIO 2 controle brandlucht WATERMOLEN 7461AZ : RIJSSEN
NB: Rookontwikkeling in appartementencomplex.
5131
73 14-05-2013 21:35 PRIO 1 Gebouwbrand (schoorsteen) : KRUISWEG 7461ZV : RIJSSEN 5131 5151
72 07-05-2013 13:35 PRIO 1 OMS Stempher verpakkingsindustrie : MORSWEG 7461AG : RIJSSEN 5131
71 05-05-2013 13:25 PRIO 1 Aanrijding Letsel : A1 R 129 : RIJSSEN 5171
70 05-05-2013 08:59 PRIO 1 Woningbrand (nog onbekend) : DENNENLAAN 7461XK : RIJSSEN 5131 5141
69 04-05-2013 19:49 PRIO 1 OMS Parkstede Zorgwoningen Oosterh : OOSTERHOFWEG 7461BW : RIJSSEN 5131
68 03-05-2013 20:33 PRIO 1 OMS Wellehof de Woonzorgcentrum : WELLEWEG 7462GE : RIJSSEN 5131
67 29-04-2013 15:02 PRIO 1 OMS Parkstede Zorgwoningen Oosterh : OOSTERHOFWEG 7461BW : RIJSSEN 5141
66 27-04-2013 14:22 PRIO 1 OMS Wellehof de Woonzorgcentrum : WELLEWEG 7462GE : RIJSSEN 5131
65 24-04-2013 11:35 PRIO 1 OMS Wellehof lokatie Kattenhaarswe : KATTENHAARSWEG 7462ER : RIJSSEN 5131
64 22-04-2013 08:37 PRIO 1 OMS Hofman Lieve's Diergeneesmidde : RIJSSENSESTRAAT – N350 160 7462NN : WIERDEN 5131
63 18-04-2013 07:23 PRIO 1 Gezondheid (Inzet Brw: Tilassistentie TS) : ANJELIERSTRAAT 7641CG : WIERDEN 5151
62 17-04-2013 09:29 PRIO 1 OMS Parkstede Zorgwoningen Oosterh : OOSTERHOFWEG 7461BW : RIJSSEN 5131
61 10-04-2013 19:34 PRIO 2 Buitenbrand Berm/Ruigte : BREKELDLAAN : RIJSSEN
NB: Betrof prullenbak in brand.
5131
60 10-04-2013 12:44 PRIO 1 Gebouwbrand (schoorsteen) : PLASDIJK e 7475TD : MARKELO 5151
59 08-04-2013 03:40 PRIO 1 Woningbrand HAARSTRAAT : ESSTRAAT : RIJSSEN 5131 5141 5151
58 05-04-2013 15:36 PRIO 2 Buitenbrand Berm/Ruigte : LIGTENBERGERDIJK : RIJSSEN 5131
57 03-04-2013 12:03 PRIO 1 OMS Appartementen Arkeheem : Arkeheem 44 7463CR : RIJSSEN 5131
56 03-04-2013 10:56 PRIO 2 Hulpverlening : REGGESINGEL : RIJSSEN
NB: Gaslucht omgeving Reggesingel – Dannenberg.
5131
55 03-04-2013 09:59 PRIO 1 OMS Veste de : IZAAK HEIJMANSTRAAT 7461MA : RIJSSEN 5131
54 02-04-2013 23:55 PRIO 1 PAC Melding Voortman Staalbouw hal 1 : PLAAGSLAGEN 7463PH : RIJSSEN 5131
53 02-04-2013 21:39 PRIO 1 Bosbrand (Droogtefaktor: Oranje) : DE JONCHEERELAAN 7441HD : NIJVERDAL
NB: Kleine bosbrand. Brandweer Rijssen niet ter plaatse geweest.
5141
52 02-04-2013 18:41 PRIO 1 Buitenbrand Berm/Ruigte : LIGTENBERGERDIJK : RIJSSEN 5141
51 02-04-2013 12:06 PRIO 1 OMS Gemeentehuis gebouw B : SCHILD 7461DD : RIJSSEN 5131
50 02-04-2013 09:39 PRIO 1 Industriebrand : BREUKERSWEG 7471ST : GOOR
NB: Betrof kleine brand. Hoogwerker niet tp geweest.
5151
49 01-04-2013 06:37


01-04-2013 05:35
 PRIO 1 Industriebrand (Bijstand: WTS 500) (Zeer grote brand) ( Grobben transport & containerv : BUITENHAVENWEG 7604PW : ALMELO
PRIO 1 Bijstand (Bijstand: WTS 1000) GRASLAAN : BUITENHAVEN OOSTZIJDE : ALMELO
5151


5131
48 29-03-2013 16:21 PRIO 2 Liftopsluiting : WALSTRAAT 47 7462BA : RIJSSEN 5131
47 25-03-2013 18:45 PRIO 1 OMS JP van den Bent : DE GIEZEN : RIJSSEN 5141
46 24-03-2013 16:33 PRIO 1 Gebouwbrand (schoorsteen) : 2E NIEUWSTADSWEG 7642NH : WIERDEN
NB: Kleine brand.
5131
45 24-03-2013 15:45 PRIO 1 Woningbrand (schoorsteen) : WHEEDWARSWEG 7471GG : GOOR
NB: Middelbrand. Woning onbewoonbaar.
5151
44 21-03-2013 06:13 PRIO 1 Woningbrand : KONINGIN WILHELMINASTRAAT 1 7451DZ : HOLTEN 5151
43 19-03-2013 09:37 PRIO1 OMS Synwood Oost : FAHRENHEITSTRAAT 19 7461JA : RIJSSEN 5131
42 18-03-2013 15:36 PRIO 1 OMS Veste de : IZAAK HEIJMANSTRAAT 5 7461MA : RIJSSEN 5131
41 18-03-2013 11:06 PRIO 1 Gebouwbrand (schoorsteen) (Kleine brand) : DE DELLE 34 7609CH : ALMELO 5151
40 14-03-2013 21:19 PRIO 1 Gebouwbrand (schoorsteen) TEEMKERSWEG 1 7495SM AMBT DELDEN 5151
39 14-03-2013 08:09 PRIO 1 Aanrijding Letsel : A1 L 127 : RIJSSEN 5171
38 07-03-2013 20:32 PRIO 1 Brand Wegvervoer (Soort: vrachtwagen) : A1 L 127 : RIJSSEN
NB: Vrachtwagen vol nieuwe auto's in brand.
5131
37 06-03-2013 08:13 PRIO 2 Dier op hoogte Natuurdiorama Holterberg : HOLTERBERGWEG 12 7451JL : HOLTEN 5151
36 05-03-2013 16:48 PRIO 1 OMS Parkstede Zorgwoningen Oosterh : OOSTERHOFWEG 48 7461BW : RIJSSEN 5131
35 02-03-2013 15:33 PRIO 1 Dienstverlening (Inzet Brw NACHTEGAALSTRAAT 131 7605BM 5151
34 01-03-2013 15:48 PRIO 1 Woningbrand : GARVESINGEL 123 7672BK : VRIEZENVEEN
NB: Wasdroger in brand op zolder. Hoogwerker niet tp geweest.
5151
33 01-03-2013 10:35

01-03-2013 10:33

01-03-2013 10:23
PRIO 1 Bijstand (Bijstand: WTS 1000) : VERZETSTRAAT : VRIEZENVEEN
PRIO 1 MEETPLOEG Jari Autoparts : VERZETSTRAAT 104 A 7671GN : VRIEZENVEEN
PRIO 1 Industriebrand Jari Autoparts : VERZETSTRAAT 104 A 7671GN : VRIEZENVEEN
NB: Zeer grote brand in opslagloods. Bij de brand is asbest vrijgekomen.
5131 5151 5101 5181
32 25-02-2013 19:33 PRIO 2 Nacontrole Roosdom-Tijhuis : JUTESTRAAT 8 7461TR : RIJSSEN
Betrof machine in brand. Brandweer tp voor controle afzuiging.
5131
31 23-02-2013 16:26 PRIO 1 Woningbrand : MARKELOSEWEG 9 7461ED : RIJSSEN 5131 5141 5151
30 23-02-2013 05:59 PRIO 1 Aanrijding Letsel : A1 R 120 : HOLTEN 5171
29 21-02-2013 13:44 PRIO 1 OMS Philadelphia Zorgwoningen : VEENESLAGEN 82 7463CL : RIJSSEN 5131
28 20-02-2013 12:58 PRIO 2 Dier op hoogte (Soort dier: kat) Brandweer Goor : VAN KOLLAAN 19 7471DP : GOOR 5151
27 16-02-2013 14:18 PRIO 1 OMS Wellehof de Woonzorgcentrum : WELLEWEG 19 7462GE : RIJSSEN 5131
26 13-02-2013 11:47 PRIO 1 Gebouwbrand (schoorsteen) : WATERHOEN 24 7462ZD : RIJSSEN 5141 5151
25 11-02-2013 20:56 PRIO 1 Gebouwbrand (schoorsteen) : M . H . TROMPSTRAAT 1 7642CA : WIERDEN 5151
24 08-02-2013 07:25 PRIO 1 Persoon bekneld : RIJSSENSESTRAAT – N350 : WIERDEN
Betrof vrachtwagenchauffeur bekneld onder eigen lading. Bij aankomst brandweer reeds bevrijdt. Brandweer niet ingezet.
5131 5171
23 07-02-2013 16:28 PRIO 1 OMS Parkstede 3+5 hoog flat Potteb : POTTEBAKKERSERF : RIJSSEN 5131
22 03-02-2013 14:13 PRIO 2 nacontrole (schoorsteen) : RIJSSENSEWEG 30 : HOLTEN 5151
21 03-02-2013 00:00 PRIO 1 Gebouwbrand (schoorsteen) : MERELSTRAAT 57 7471GB : GOOR 5151
20 01-02-2013 15:39 PRIO 1 Aanrijding Letsel : A1 R 132 : ENTER 5171
19 31-01-2013 13:42 PRIO 1 OMS Parkeergarage (autom. alarm) : HOGEPAD 1 7462TA : RIJSSEN 5131
18 31-01-2013 09:40 PRIO 1 Aanrijding Letsel : A1 R 138 : BORNERBROEK 5171
17 30-01-2013 21:06 PRIO 2 Dier in problemen KOE IN DE GRUP: LANGSTRAAT 8 5451ND : HOLTEN 5141
16 26-01-2012 12:02 PRIO 1 Brand Wegvervoer (Soort: personenauto) : NIJVERHEIDSSTRAAT 19 7461AD : RIJSSEN 5131
15 24-01-2013 17:19 PRIO 1 Woningbrand (zolder) : KEDINGEN 1 7642CG : WIERDEN 5151
14 22-01-2013 18:18 PRIO 1 Gebouwbrand (schoorsteen) : NIJVERDALSEWEG 42 7461TE : RIJSSEN 5131 5151
13 22-01-2013 16:56 PRIO 1 Woningbrand (Middelbrand) : HILTJESDAMHOF 14 9 7471NP : GOOR
Brandweer redt slachtoffer uit woning
5151
12 22-01-2013 09:50 PRIO 1 OMS Maranatha / Ingang K2 : KEIZERSDIJK 6 7462JB : RIJSSEN 5131
11 21-01-2013 17:34 PRIO 1 Woningbrand (nog onbekend) Landal Twenhaarsveld : LANDUWERWEG 17 7451SP : HOLTEN
Betrof brand in vakantiewoning. Brandweer Rijssen niet ingezet.
5131 5141
10 18-01-2013 05:43 PRIO 1 OMS Winkelcentrum (autom. alarm) : HOGEPAD 1 7462TA : RIJSSEN 5131
9 17-01-2013 18:13 PRIO 1 OMS JP van den Bent : DE GIEZEN 15 : RIJSSEN 5131
8 17-01-2013 10:12 PRIO 1 OMS Parkeergarage (autom . alarm) : HOGEPAD 1 7462TA : RIJSSEN 5131
7 09-01-2013 10:19 PRIO 1 OMS Veste de : IZAAK HEIJMANSTRAAT 5 7461MA : RIJSSEN 5131
6 08-01-2013 13:24 PRIO 1 OMS Kulturhus Notter Zuna : VAN KREGTENWEG 9 7467PL : NOTTER 5131
5 07-01-2013 04:46 PRIO 1 Woningbrand (meterkast) : ERVE HARBERS 3 7463CV : RIJSSEN
PRIO 1 Woningbrand (Middelbrand) : ERVE HARBERS 3 7463CV : RIJSSEN
NB: Brand in zelfde woning als vorige melding. Opgeschaald naar Middelbrand.
5131 5141
4 07-01-2013 02:11 PRIO 1 Woningbrand (zolder) : ERVE HARBERS 3 7463CV : RIJSSEN
NB: Brand op zolder door kortsluiting
5131 5141 5151
3 03-01-2013 21:06 PRIO 2 Buitenbrand Berm/Ruigte hondsdraft : LIGTENBERGERDIJK : RIJSSEN
NB: Kleine afvalbrand aan Sikkelweg
5141
2 01-01-2013 12:41 PRIO 2 Liftopsluiting : VINCENT VAN GOGHSTRAAT 95 7462CB : RIJSSEN 5131
1 01-01-2013 00:24 PRIO 1 Woningbrand rietenkap : MARKELOSEWEG 15 7451RR : HOLTEN
NB: Classificatie Middelbrand
5151